Regional Weather Roundup
Issued by NWS

Home | Current Version | Previous Version | Graphics & Text | Print | Product List | Glossary On
Versions: 1 2 3 4 5 6 7 8 9 10 11 12 13 14 15 16 17 18 19 20 21 22 23 24 25 26 27 28 29 30 31 32 33 34 35 36 37 38 39 40 41 42 43 44 45 46 47 48 49 50
000
ASUS43 KFSD 290302
RWRSD

WEATHER ROUNDUP FOR SOUTH DAKOTA
NATIONAL WEATHER SERVICE SIOUX FALLS SD
1000 PM CDT SUN AUG 28 2016

NOTE: "FAIR" INDICATES FEW OR NO CLOUDS BELOW 12,000 FEET WITH NO
SIGNIFICANT WEATHER AND/OR OBSTRUCTIONS TO VISIBILITY.


SDZ001>005-009-010-012>017-290400-
NORTHWEST AND NORTH CENTRAL SOUTH DAKOTA

CITY           SKY/WX    TMP DP  RH WIND       PRES   REMARKS
BUFFALO          N/A     74  47  38 N15       30.00R
FAITH            N/A     76  50  40 SE10      30.01R
MOBRIDGE       CLEAR     74  55  51 S5        29.94R
$$

SDZ012>016-024>037-041>051-057-063-072>074-290400-
SOUTHWEST AND SOUTH CENTRAL SOUTH DAKOTA

CITY           SKY/WX    TMP DP  RH WIND       PRES   REMARKS
RAPID CTY ARPT CLEAR     71  50  47 NE13      30.04R
PIERRE         CLEAR     78  59  51 S8        29.96R
CUSTER         CLEAR     64  36  35 NW5       30.22R
ELLSWORTH AFB  CLEAR     76  49  38 NE8         N/A
PHILIP         CLEAR     74  59  59 NE6       29.98R
PINE RIDGE     CLEAR     73  49  42 VRB3      30.06R
WINNER         FAIR      81  63  54 S15       30.03R
$$

SDZ004>011-016>023-039-040-290400-
NORTHEAST SOUTH DAKOTA

CITY           SKY/WX    TMP DP  RH WIND       PRES   REMARKS
ABERDEEN       CLOUDY    81  67  62 S15       29.97R
WATERTOWN      CLEAR     76  70  82 S13       30.04R
BROOKINGS        N/A    N/A N/A N/A MISG        N/A
$$

SDZ017-020-022-023-036>040-048>070-290400-
SOUTHEAST SOUTH DAKOTA

CITY           SKY/WX    TMP DP  RH WIND       PRES   REMARKS
SIOUX FALLS    PTCLDY    81  70  69 S16G24    30.09R
HURON          PTCLDY    79  67  66 S14       30.00R
CHAMBERLAIN    CLEAR     80  64  56 SE13      30.02R
MITCHELL       PTCLDY    81  68  64 S14       30.04R
YANKTON        CLEAR     79  70  73 SE14G20   30.07R
$$

ABBREVIATIONS USED IN REMARKS
   TC - TEMPERATURE IN CELSIUS
  WCI - WIND CHILL INDEX
   HX - HEAT INDEX
  VSB - VISIBILITY




USA.gov is the U.S. government's official web portal to all federal, state and local government web resources and services.